Project,Study,Ord_Occ,Event_Num,Cast_ID,Date_Time_UTC,Date_Time_PST,Lat_Dec,Lon_Dec,Sta_ID,Line,Sta,Depth,Pressure,PrQ,Temp1,Temp1Q,Temp2,Temp2Q,TempAve,Salt1,Salt1Q,Salt1_Corr,Salt2,Salt2Q,Salt2_Corr,SaltAve_Corr,Ox1,Ox1Q,Ox1_CruiseCorr,Ox1_StaCorr,Ox2,Ox2Q,Ox2_CruiseCorr,Ox2_StaCorr,OxAve_StaCorr,Ox1uM,Ox1uM_CruiseCorr,Ox1uM_StaCorr,Ox2uM,Ox2uM_CruiseCorr,Ox2uM_StaCorr,OxAveuM_StaCorr,FluorV,FluorQ,EstChl_CruiseCorr,EstChl_StaCorr,ISUSV,ISUSQ,EstNO3_CruiseCorr,EstNO3_StaCorr,SigThetaTS1,SigThetaTS1Q,SigThetaTS2,SigThetaTS2Q,BAT,XMiss,TransQ,pH,pHQ,SPAR,SPARQ,PAR,PARQ,PoT1,PoT2,DynHt,SVA,OxSat1,OxSat2,BTL_Depth,BTL_Temp,SaltB,OxB,OxBuM,Chl-a,Phaeo,NO3,NO2,NH4,PO4,SIL
CalCOFI,2101RL,057,,2101_057d,30-Jan-2021 07:18:38,29-Jan-2021 23:18:38,33.57763,-120.75331,083.3 060.0,083.3,060.0,3.000,3.021,,12.8611,,12.8609,,12.8610,33.1895,,33.1953,33.1872,,33.1892,33.1923,5.7401,,6.0075,5.9803,5.6021,,5.9480,5.9236,5.9520,250.098,262.0628,260.9391,244.085,278.5653,258.4646,259.7019,0.1150,,0.6941,0.4750, ,, , ,25.0180,,25.0162,,0.8310,81.2400,,,,3.7191E+00,,1.0000E-12,,12.8607,12.8605,-0.0022,293.141,95.478,93.181,2,,33.1811,6.065,264.58,0.513,0.187,,,,,
CalCOFI,2101RL,057,,2101_057d,30-Jan-2021 07:18:55,29-Jan-2021 23:18:55,33.57761,-120.75329,083.3 060.0,083.3,060.0,4.000,4.029,,12.8600,,12.8604,,12.8602,33.1897,,33.1955,33.1877,,33.1897,33.1926,5.7234,,5.9900,5.9627,5.6193,,5.9663,5.9420,5.9524,249.369,261.2997,260.1707,244.832,277.7546,259.2668,259.7188,0.1422,,0.9170,0.6244, ,, , ,25.0183,,25.0167,,0.8402,81.0535,,,,3.6576E+00,,1.0000E-12,,12.8595,12.8599,0.0036,293.135,95.198,93.466,,,,,,,,,,,,
CalCOFI,2101RL,057,,2101_057d,30-Jan-2021 07:18:59,29-Jan-2021 23:18:59,33.57762,-120.75328,083.3 060.0,083.3,060.0,5.000,5.036,,12.8622,,12.8627,,12.8625,33.1906,,33.1964,33.1886,,33.1906,33.1935,5.7233,,5.9899,5.9626,5.6209,,5.9680,5.9438,5.9532,249.366,261.2965,260.1675,244.903,277.7513,259.3431,259.7553,0.1137,,0.6835,0.4679, ,, , ,25.0186,,25.0170,,0.8387,81.0839,,,,3.6949E+00,,1.0000E-12,,12.8615,12.8621,0.0073,293.131,95.201,93.498,,,,,,,,,,,,
CalCOFI,2101RL,057,,2101_057d,30-Jan-2021 07:19:01,29-Jan-2021 23:19:01,33.57762,-120.75328,083.3 060.0,083.3,060.0,6.000,6.043,,12.8623,,12.8630,,12.8627,33.1906,,33.1964,33.1886,,33.1906,33.1935,5.7221,,5.9886,5.9614,5.6287,,5.9762,5.9521,5.9568,249.312,261.2400,260.1106,245.245,277.6913,259.7104,259.9105,0.1364,,0.8695,0.5925, ,, , ,25.0186,,25.0170,,0.8381,81.0971,,,,3.6947E+00,,1.0000E-12,,12.8615,12.8622,0.0103,293.156,95.181,93.629,,,,,,,,,,,,
CalCOFI,2101RL,057,,2101_057d,30-Jan-2021 07:19:04,29-Jan-2021 23:19:04,33.57762,-120.75327,083.3 060.0,083.3,060.0,7.000,7.050,,12.8621,,12.8623,,12.8622,33.1905,,33.1963,33.1886,,33.1906,33.1935,5.7268,,5.9936,5.9663,5.6349,,5.9828,5.9588,5.9626,249.518,261.4556,260.3278,245.512,277.9203,259.9972,260.1625,0.1230,,0.7597,0.5190, ,, , ,25.0186,,25.0171,,0.8373,81.1133,,,,3.6947E+00,,1.0000E-12,,12.8611,12.8614,0.0133,293.183,95.259,93.729,,,,,,,,,,,,
CalCOFI,2101RL,057,,2101_057d,30-Jan-2021 07:19:06,29-Jan-2021 23:19:06,33.57762,-120.75326,083.3 060.0,083.3,060.0,8.000,8.057,,12.8634,,12.8634,,12.8634,33.1912,,33.1970,33.1891,,33.1911,33.1941,5.7296,,5.9965,5.9693,5.6383,,5.9864,5.9624,5.9659,249.636,261.5792,260.4521,245.659,278.0515,260.1551,260.3036,0.1206,,0.7400,0.5058, ,, , ,25.0189,,25.0173,,0.8565,80.7275,,,,3.6947E+00,,1.0000E-12,,12.8623,12.8623,0.0162,293.182,95.308,93.788,,,,,,,,,,,,
CalCOFI,2101RL,057,,2101_057d,30-Jan-2021 07:19:07,29-Jan-2021 23:19:07,33.57763,-120.75326,083.3 060.0,083.3,060.0,9.000,9.065,,12.8655,,12.8656,,12.8656,33.1922,,33.1980,33.1900,,33.1920,33.1950,5.7254,,5.9921,5.9648,5.6300,,5.9776,5.9535,5.9592,249.457,261.3918,260.2635,245.297,277.8525,259.7663,260.0149,0.1178,,0.7171,0.4904, ,, , ,25.0194,,25.0177,,0.8446,80.9654,,,,3.6947E+00,,1.0000E-12,,12.8643,12.8643,0.0192,293.166,95.244,93.655,,,,,,,,,,,,
CalCOFI,2101RL,057,,2101_057d,30-Jan-2021 07:19:08,29-Jan-2021 23:19:08,33.57764,-120.75326,083.3 060.0,083.3,060.0,10.000,10.072,,12.8680,,12.8686,,12.8683,33.1945,,33.2003,33.1923,,33.1943,33.1973,5.7088,,5.9747,5.9474,5.6313,,5.9790,5.9549,5.9512,248.733,260.6339,259.5002,245.356,277.0474,259.8297,259.6650,0.1355,,0.8621,0.5876, ,, , ,25.0207,,25.0189,,0.8374,81.1110,,,,3.6947E+00,,1.0000E-12,,12.8666,12.8672,0.0221,293.069,94.974,93.684,10,,33.1892,5.976,260.70,0.571,0.204,,,,,
CalCOFI,2101RL,057,,2101_057d,30-Jan-2021 07:19:10,29-Jan-2021 23:19:10,33.57763,-120.75326,083.3 060.0,083.3,060.0,11.000,11.079,,12.8714,,12.8716,,12.8715,33.1980,,33.2038,33.1954,,33.1974,33.2006,5.7061,,5.9719,5.9445,5.6185,,5.9654,5.9412,5.9429,248.615,260.5104,259.3759,244.796,276.9162,259.2282,259.3021,0.1354,,0.8613,0.5871, ,, , ,25.0227,,25.0207,,0.8379,81.1004,,,,3.6947E+00,,1.0000E-12,,12.8700,12.8702,0.0251,292.904,94.938,93.478,,,,,,,,,,,,
CalCOFI,2101RL,057,,2101_057d,30-Jan-2021 07:19:12,29-Jan-2021 23:19:12,33.57762,-120.75326,083.3 060.0,083.3,060.0,12.000,12.086,,12.8715,,12.8726,,12.8721,33.1992,,33.2050,33.1980,,33.2000,33.2025,5.7171,,5.9834,5.9561,5.6252,,5.9725,5.9484,5.9523,249.092,261.0097,259.8787,245.087,277.4466,259.5407,259.7097,0.1368,,0.8728,0.5947, ,, , ,25.0236,,25.0225,,0.8377,81.1053,,,,3.6947E+00,,1.0000E-12,,12.8699,12.8710,0.0280,292.842,95.121,93.593,,,,,,,,,,,,
CalCOFI,2101RL,057,,2101_057d,30-Jan-2021 07:19:14,29-Jan-2021 23:19:14,33.57762,-120.75326,083.3 060.0,083.3,060.0,13.000,13.093,,12.8725,,12.8730,,12.8728,33.2028,,33.2086,33.2013,,33.2033,33.2060,5.7146,,5.9808,5.9535,5.6337,,5.9816,5.9575,5.9555,248.983,260.8956,259.7638,245.457,277.3254,259.9381,259.8510,0.1501,,0.9817,0.6678, ,, , ,25.0263,,25.0250,,0.8370,81.1188,,,,3.6947E+00,,1.0000E-12,,12.8707,12.8713,0.0310,292.617,95.083,93.737,,,,,,,,,,,,
CalCOFI,2101RL,057,,2101_057d,30-Jan-2021 07:19:19,29-Jan-2021 23:19:19,33.57762,-120.75324,083.3 060.0,083.3,060.0,14.000,14.101,,12.8697,,12.8702,,12.8700,33.2070,,33.2128,33.2052,,33.2072,33.2100,5.7162,,5.9825,5.9552,5.6294,,5.9770,5.9529,5.9541,249.050,260.9657,259.8344,245.271,277.3999,259.7383,259.7864,0.1371,,0.8752,0.5964, ,, , ,25.0301,,25.0286,,0.8363,81.1330,,,,3.6947E+00,,1.0000E-12,,12.8678,12.8683,0.0342,292.278,95.107,93.663,,,,,,,,,,,,
CalCOFI,2101RL,057,,2101_057d,30-Jan-2021 07:19:27,29-Jan-2021 23:19:27,33.57760,-120.75321,083.3 060.0,083.3,060.0,15.000,15.108,,12.8688,,12.8693,,12.8691,33.2076,,33.2134,33.2055,,33.2075,33.2105,5.7169,,5.9832,5.9559,5.6309,,5.9786,5.9545,5.9552,249.081,260.9982,259.8671,245.337,277.4344,259.8092,259.8382,0.1393,,0.8932,0.6085, ,, , ,25.0308,,25.0291,,0.8360,81.1395,,,,3.6947E+00,,1.0000E-12,,12.8668,12.8673,0.0383,292.241,95.117,93.687,,,,,,,,,,,,
CalCOFI,2101RL,057,,2101_057d,30-Jan-2021 07:19:34,29-Jan-2021 23:19:34,33.57758,-120.75318,083.3 060.0,083.3,060.0,16.000,16.115,,12.8680,,12.8684,,12.8682,33.2079,,33.2137,33.2061,,33.2081,33.2109,5.7088,,5.9747,5.9474,5.6344,,5.9823,5.9582,5.9528,248.730,260.6308,259.4971,245.488,277.0441,259.9714,259.7343,0.1351,,0.8588,0.5854, ,, , ,25.0312,,25.0297,,0.8360,81.1390,,,,3.6947E+00,,1.0000E-12,,12.8659,12.8662,0.0428,292.229,94.982,93.743,,,,,,,,,,,,
CalCOFI,2101RL,057,,2101_057d,30-Jan-2021 07:19:40,29-Jan-2021 23:19:40,33.57757,-120.75317,083.3 060.0,083.3,060.0,17.000,17.122,,12.8674,,12.8676,,12.8675,33.2109,,33.2167,33.2090,,33.2110,33.2139,5.7084,,5.9743,5.9469,5.6292,,5.9768,5.9527,5.9498,248.710,260.6098,259.4760,245.262,277.0218,259.7287,259.6024,0.1380,,0.8826,0.6013, ,, , ,25.0336,,25.0321,,0.8357,81.1461,,,,3.6947E+00,,1.0000E-12,,12.8652,12.8653,0.0465,292.021,94.975,93.657,,,,,,,,,,,,
CalCOFI,2101RL,057,,2101_057d,30-Jan-2021 07:19:46,29-Jan-2021 23:19:46,33.57758,-120.75316,083.3 060.0,083.3,060.0,18.000,18.130,,12.8663,,12.8662,,12.8663,33.2145,,33.2203,33.2131,,33.2151,33.2177,5.7039,,5.9696,5.9422,5.6252,,5.9725,5.9484,5.9453,248.516,260.4067,259.2715,245.087,276.8061,259.5407,259.4061,0.1417,,0.9129,0.6216, ,, , ,25.0366,,25.0356,,0.8361,81.1363,,,,3.6947E+00,,1.0000E-12,,12.8639,12.8638,0.0497,291.761,94.901,93.591,,,,,,,,,,,,
CalCOFI,2101RL,057,,2101_057d,30-Jan-2021 07:19:50,29-Jan-2021 23:19:50,33.57759,-120.75314,083.3 060.0,083.3,060.0,19.000,19.137,,12.8618,,12.8618,,12.8618,33.2179,,33.2237,33.2163,,33.2183,33.2210,5.6986,,5.9641,5.9366,5.6262,,5.9736,5.9494,5.9430,248.282,260.1618,259.0248,245.127,276.5459,259.5837,259.3043,0.1359,,0.8654,0.5898, ,, , ,25.0402,,25.0389,,0.8334,81.1918,,,,3.6947E+00,,1.0000E-12,,12.8592,12.8592,0.0526,291.446,94.805,93.599,,,,,,,,,,,,
CalCOFI,2101RL,057,,2101_057d,30-Jan-2021 07:19:54,29-Jan-2021 23:19:54,33.57760,-120.75314,083.3 060.0,083.3,060.0,20.000,20.144,,12.8624,,12.8630,,12.8627,33.2201,,33.2259,33.2181,,33.2201,33.2230,5.6926,,5.9578,5.9303,5.6107,,5.9571,5.9328,5.9316,248.022,259.8896,258.7507,244.454,276.2568,258.8609,258.8058,0.1453,,0.9424,0.6414, ,, , ,25.0419,,25.0402,,0.8327,81.2064,,,,3.6947E+00,,1.0000E-12,,12.8597,12.8604,0.0556,291.318,94.708,93.346,20,,33.2252,5.955,259.80,0.627,0.287,,,,,
CalCOFI,2101RL,057,,2101_057d,30-Jan-2021 07:19:57,29-Jan-2021 23:19:57,33.57760,-120.75312,083.3 060.0,083.3,060.0,21.000,21.151,,12.8637,,12.8644,,12.8641,33.2218,,33.2276,33.2201,,33.2221,33.2249,5.6950,,5.9603,5.9328,5.6085,,5.9548,5.9305,5.9317,248.126,259.9985,258.8604,244.354,276.3724,258.7535,258.8070,0.1383,,0.8850,0.6030, ,, , ,25.0430,,25.0415,,0.8341,81.1788,,,,3.6947E+00,,1.0000E-12,,12.8609,12.8616,0.0586,291.241,94.752,93.312,,,,,,,,,,,,
CalCOFI,2101RL,057,,2101_057d,30-Jan-2021 07:20:02,29-Jan-2021 23:20:02,33.57762,-120.75310,083.3 060.0,083.3,060.0,22.000,22.159,,12.8660,,12.8664,,12.8662,33.2231,,33.2289,33.2212,,33.2232,33.2261,5.6741,,5.9384,5.9108,5.6038,,5.9498,5.9254,5.9181,247.214,259.0438,257.8990,244.153,275.3582,258.5376,258.2183,0.1320,,0.8334,0.5684, ,, , ,25.0435,,25.0420,,0.8316,81.2288,,,,3.6947E+00,,1.0000E-12,,12.8630,12.8634,0.0616,291.216,94.409,93.239,,,,,,,,,,,,
CalCOFI,2101RL,057,,2101_057d,30-Jan-2021 07:20:03,29-Jan-2021 23:20:03,33.57762,-120.75310,083.3 060.0,083.3,060.0,23.000,23.166,,12.8689,,12.8692,,12.8691,33.2261,,33.2319,33.2242,,33.2262,33.2291,5.6848,,5.9496,5.9221,5.5919,,5.9372,5.9127,5.9174,247.681,259.5327,258.3913,243.631,275.8776,257.9770,258.1842,0.1371,,0.8752,0.5964, ,, , ,25.0453,,25.0438,,0.8311,81.2395,,,,3.6947E+00,,1.0000E-12,,12.8658,12.8661,0.0645,291.069,94.595,93.048,,,,,,,,,,,,
CalCOFI,2101RL,057,,2101_057d,30-Jan-2021 07:20:08,29-Jan-2021 23:20:08,33.57762,-120.75309,083.3 060.0,083.3,060.0,24.000,24.173,,12.8700,,12.8702,,12.8701,33.2261,,33.2319,33.2240,,33.2260,33.2290,5.6916,,5.9567,5.9293,5.6038,,5.9498,5.9254,5.9274,247.976,259.8415,258.7022,244.150,276.2056,258.5344,258.6183,0.1320,,0.8334,0.5684, ,, , ,25.0451,,25.0435,,0.8293,81.2757,,,,3.6947E+00,,1.0000E-12,,12.8668,12.8669,0.0682,291.119,94.710,93.247,,,,,,,,,,,,
CalCOFI,2101RL,057,,2101_057d,30-Jan-2021 07:20:10,29-Jan-2021 23:20:10,33.57762,-120.75310,083.3 060.0,083.3,060.0,25.000,25.180,,12.8664,,12.8667,,12.8666,33.2291,,33.2349,33.2272,,33.2292,33.2321,5.6783,,5.9428,5.9153,5.5938,,5.9392,5.9147,5.9150,247.396,259.2343,258.0909,243.716,275.5606,258.0683,258.0796,0.1267,,0.7900,0.5393, ,, , ,25.0482,,25.0466,,0.8315,81.2309,,,,3.6947E+00,,1.0000E-12,,12.8630,12.8634,0.0715,290.850,94.483,93.077,,,,,,,,,,,,
CalCOFI,2101RL,057,,2101_057d,30-Jan-2021 07:20:12,29-Jan-2021 23:20:12,33.57762,-120.75310,083.3 060.0,083.3,060.0,26.000,26.188,,12.8509,,12.8509,,12.8509,33.2310,,33.2368,33.2292,,33.2312,33.2340,5.6891,,5.9541,5.9266,5.6002,,5.9460,5.9216,5.9241,247.865,259.7253,258.5852,243.991,276.0822,258.3636,258.4744,0.1334,,0.8449,0.5761, ,, , ,25.0527,,25.0513,,0.8301,81.2587,,,,3.6947E+00,,1.0000E-12,,12.8474,12.8474,0.0744,290.442,94.634,93.153,,,,,,,,,,,,
CalCOFI,2101RL,057,,2101_057d,30-Jan-2021 07:20:14,29-Jan-2021 23:20:14,33.57762,-120.75310,083.3 060.0,083.3,060.0,27.000,27.195,,12.8388,,12.8389,,12.8389,33.2300,,33.2358,33.2281,,33.2301,33.2330,5.7005,,5.9660,5.9386,5.5992,,5.9449,5.9205,5.9296,248.362,260.2455,259.1092,243.949,276.6348,258.3185,258.7139,0.1478,,0.9629,0.6551, ,, , ,25.0543,,25.0528,,0.8338,81.1835,,,,3.6947E+00,,1.0000E-12,,12.8352,12.8353,0.0773,290.319,94.799,93.114,,,,,,,,,,,,
CalCOFI,2101RL,057,,2101_057d,30-Jan-2021 07:20:18,29-Jan-2021 23:20:18,33.57762,-120.75308,083.3 060.0,083.3,060.0,28.000,28.202,,12.8400,,12.8393,,12.8397,33.2303,,33.2361,33.2284,,33.2304,33.2333,5.6851,,5.9499,5.9224,5.5992,,5.9449,5.9205,5.9215,247.691,259.5431,258.4018,243.948,275.8887,258.3174,258.3596,0.1409,,0.9063,0.6172, ,, , ,25.0543,,25.0530,,0.8313,81.2344,,,,3.6947E+00,,1.0000E-12,,12.8363,12.8356,0.0803,290.341,94.546,93.114,,,,,,,,,,,,
CalCOFI,2101RL,057,,2101_057d,30-Jan-2021 07:20:22,29-Jan-2021 23:20:22,33.57762,-120.75306,083.3 060.0,083.3,060.0,29.000,29.209,,12.8366,,12.8367,,12.8367,33.2322,,33.2380,33.2305,,33.2325,33.2353,5.6792,,5.9438,5.9162,5.5805,,5.9250,5.9004,5.9083,247.432,259.2720,258.1288,243.134,275.6007,257.4432,257.7860,0.1513,,0.9916,0.6744, ,, , ,25.0566,,25.0552,,0.8331,81.1993,,,,3.6947E+00,,1.0000E-12,,12.8327,12.8328,0.0833,290.157,94.441,92.800,,,,,,,,,,,,
CalCOFI,2101RL,057,,2101_057d,30-Jan-2021 07:20:23,29-Jan-2021 23:20:23,33.57762,-120.75307,083.3 060.0,083.3,060.0,30.000,30.217,,12.8306,,12.8310,,12.8308,33.2331,,33.2389,33.2312,,33.2332,33.2361,5.6792,,5.9438,5.9162,5.5884,,5.9334,5.9089,5.9126,247.434,259.2741,258.1309,243.477,275.6029,257.8116,257.9713,0.1398,,0.8973,0.6112, ,, , ,25.0584,,25.0568,,0.8326,81.2090,,,,3.6947E+00,,1.0000E-12,,12.8266,12.8270,0.0862,290.008,94.431,92.921,,,,,,,,,,,,
CalCOFI,2101RL,057,,2101_057d,30-Jan-2021 07:20:24,29-Jan-2021 23:20:24,33.57762,-120.75308,083.3 060.0,083.3,060.0,31.000,31.224,,12.8147,,12.8146,,12.8147,33.2328,,33.2386,33.2310,,33.2330,33.2358,5.6819,,5.9466,5.9190,5.5862,,5.9311,5.9065,5.9128,247.550,259.3955,258.2532,243.379,275.7319,257.7063,257.9798,0.1480,,0.9645,0.6562, ,, , ,25.0613,,25.0600,,0.8348,81.1637,,,,3.6947E+00,,1.0000E-12,,12.8105,12.8105,0.0892,289.756,94.444,92.852,,,,,,,,,,,,
CalCOFI,2101RL,057,,2101_057d,30-Jan-2021 07:20:26,29-Jan-2021 23:20:26,33.57761,-120.75307,083.3 060.0,083.3,060.0,32.000,32.231,,12.8078,,12.8084,,12.8081,33.2363,,33.2421,33.2345,,33.2365,33.2393,5.6814,,5.9461,5.9185,5.5814,,5.9260,5.9014,5.9100,247.526,259.3704,258.2279,243.171,275.7052,257.4829,257.8554,0.1349,,0.8572,0.5843, ,, , ,25.0654,,25.0639,,0.8307,81.2464,,,,3.6947E+00,,1.0000E-12,,12.8035,12.8041,0.0921,289.393,94.424,92.763,,,,,,,,,,,,
CalCOFI,2101RL,057,,2101_057d,30-Jan-2021 07:20:30,29-Jan-2021 23:20:30,33.57760,-120.75305,083.3 060.0,083.3,060.0,33.000,33.239,,12.8124,,12.8136,,12.8130,33.2383,,33.2441,33.2368,,33.2388,33.2415,5.6704,,5.9345,5.9069,5.5800,,5.9245,5.8999,5.9034,247.047,258.8690,257.7230,243.109,275.1725,257.4164,257.5697,0.1349,,0.8572,0.5843, ,, , ,25.0661,,25.0647,,0.8304,81.2536,,,,3.6947E+00,,1.0000E-12,,12.8080,12.8092,0.0951,289.357,94.251,92.751,,,,,,,,,,,,
CalCOFI,2101RL,057,,2101_057d,30-Jan-2021 07:20:33,29-Jan-2021 23:20:33,33.57761,-120.75304,083.3 060.0,083.3,060.0,34.000,34.246,,12.7768,,12.7724,,12.7746,33.2371,,33.2429,33.2357,,33.2377,33.2403,5.6544,,5.9178,5.8901,5.5676,,5.9113,5.8866,5.8884,246.347,258.1362,256.9850,242.569,274.3941,256.8364,256.9107,0.1296,,0.8138,0.5552, ,, , ,25.0722,,25.0719,,0.8280,81.3008,,,,3.6947E+00,,1.0000E-12,,12.7722,12.7678,0.0982,288.801,93.915,92.466,,,,,,,,,,,,
CalCOFI,2101RL,057,,2101_057d,30-Jan-2021 07:20:34,29-Jan-2021 23:20:34,33.57762,-120.75304,083.3 060.0,083.3,060.0,35.000,35.253,,12.7593,,12.7594,,12.7594,33.2426,,33.2484,33.2405,,33.2425,33.2455,5.6602,,5.9239,5.8962,5.5646,,5.9082,5.8834,5.8898,246.602,258.4032,257.2538,242.435,274.6777,256.6924,256.9731,0.1302,,0.8187,0.5585, ,, , ,25.0798,,25.0782,,0.8277,81.3091,,,,3.6947E+00,,1.0000E-12,,12.7547,12.7547,0.1011,288.099,93.982,92.393,,,,,,,,,,,,
CalCOFI,2101RL,057,,2101_057d,30-Jan-2021 07:20:35,29-Jan-2021 23:20:35,33.57762,-120.75304,083.3 060.0,083.3,060.0,36.000,36.261,,12.7612,,12.7614,,12.7613,33.2453,,33.2511,33.2434,,33.2454,33.2483,5.6663,,5.9302,5.9026,5.5629,,5.9064,5.8815,5.8921,246.865,258.6785,257.5311,242.360,274.9702,256.6119,257.0715,0.1248,,0.7744,0.5289, ,, , ,25.0816,,25.0801,,0.8244,81.3757,,,,3.6947E+00,,1.0000E-12,,12.7564,12.7566,0.1040,287.953,94.088,92.370,,,,,,,,,,,,
CalCOFI,2101RL,057,,2101_057d,30-Jan-2021 07:20:37,29-Jan-2021 23:20:37,33.57760,-120.75306,083.3 060.0,083.3,060.0,37.000,37.268,,12.7511,,12.7512,,12.7512,33.2459,,33.2517,33.2439,,33.2459,33.2488,5.6668,,5.9308,5.9031,5.5687,,5.9125,5.8878,5.8955,246.887,258.7015,257.5543,242.612,274.9946,256.8826,257.2185,0.1265,,0.7884,0.5382, ,, , ,25.0840,,25.0825,,0.8244,81.3764,,,,3.6947E+00,,1.0000E-12,,12.7461,12.7462,0.1069,287.750,94.077,92.447,,,,,,,,,,,,
CalCOFI,2101RL,057,,2101_057d,30-Jan-2021 07:20:39,29-Jan-2021 23:20:39,33.57760,-120.75306,083.3 060.0,083.3,060.0,38.000,38.275,,12.7382,,12.7383,,12.7383,33.2455,,33.2513,33.2435,,33.2455,33.2484,5.6680,,5.9320,5.9044,5.5676,,5.9113,5.8866,5.8955,246.939,258.7559,257.6091,242.563,275.0524,256.8299,257.2195,0.1261,,0.7851,0.5360, ,, , ,25.0862,,25.0847,,0.8231,81.4015,,,,3.6947E+00,,1.0000E-12,,12.7332,12.7332,0.1098,287.565,94.072,92.404,,,,,,,,,,,,
CalCOFI,2101RL,057,,2101_057d,30-Jan-2021 07:20:42,29-Jan-2021 23:20:42,33.57760,-120.75306,083.3 060.0,083.3,060.0,39.000,39.283,,12.7329,,12.7321,,12.7325,33.2462,,33.2520,33.2430,,33.2450,33.2485,5.6302,,5.8925,5.8646,5.5480,,5.8905,5.8656,5.8651,245.293,257.0329,255.8740,241.712,273.2221,255.9159,255.8950,0.1263,,0.7867,0.5371, ,, , ,25.0879,,25.0856,,0.8204,81.4563,,,,3.6947E+00,,1.0000E-12,,12.7277,12.7269,0.1127,287.432,93.435,92.067,,,,,,,,,,,,
CalCOFI,2101RL,057,,2101_057d,30-Jan-2021 07:20:43,29-Jan-2021 23:20:43,33.57760,-120.75306,083.3 060.0,083.3,060.0,40.000,40.290,,12.7215,,12.7216,,12.7216,33.2479,,33.2537,33.2460,,33.2480,33.2509,5.6161,,5.8777,5.8498,5.5164,,5.8570,5.8317,5.8408,244.677,256.3881,255.2246,240.333,272.5371,254.4349,254.8298,0.1129,,0.6769,0.4635, ,, , ,25.0914,,25.0900,,0.8149,81.5698,,,,3.6947E+00,,1.0000E-12,,12.7162,12.7163,0.1155,287.122,93.179,91.524,,,,,,,,,,,,
CalCOFI,2101RL,057,,2101_057d,30-Jan-2021 07:20:45,29-Jan-2021 23:20:45,33.57760,-120.75306,083.3 060.0,083.3,060.0,41.000,41.297,,12.7084,,12.7081,,12.7083,33.2543,,33.2601,33.2528,,33.2548,33.2575,5.6199,,5.8817,5.8538,5.5099,,5.8501,5.8247,5.8393,244.838,256.5566,255.3943,240.050,272.7161,254.1309,254.7626,0.1034,,0.5991,0.4114, ,, , ,25.0990,,25.0979,,0.8044,81.7842,,,,3.6947E+00,,1.0000E-12,,12.7030,12.7026,0.1184,286.429,93.220,91.395,,,,,,,,,,,,
CalCOFI,2101RL,057,,2101_057d,30-Jan-2021 07:20:48,29-Jan-2021 23:20:48,33.57760,-120.75304,083.3 060.0,083.3,060.0,42.000,42.305,,12.7017,,12.6987,,12.7002,33.2587,,33.2645,33.2585,,33.2605,33.2625,5.5460,,5.8043,5.7760,5.4693,,5.8069,5.7811,5.7786,241.619,253.1870,252.0011,238.275,269.1365,252.2246,252.1129,0.1041,,0.6048,0.4152, ,, , ,25.1037,,25.1042,,0.8033,81.8049,,,,3.6947E+00,,1.0000E-12,,12.6961,12.6931,0.1213,286.003,91.984,90.706,,,,,,,,,,,,
CalCOFI,2101RL,057,,2101_057d,30-Jan-2021 07:20:50,29-Jan-2021 23:20:50,33.57760,-120.75304,083.3 060.0,083.3,060.0,43.000,43.312,,12.6888,,12.6894,,12.6891,33.2648,,33.2706,33.2627,,33.2647,33.2677,5.4475,,5.7013,5.6723,5.3842,,5.7166,5.6898,5.6811,237.325,248.6920,247.4745,234.571,264.3615,248.2464,247.8605,0.0974,,0.5499,0.3784, ,, , ,25.1110,,25.1092,,0.7892,82.0954,,,,3.6947E+00,,1.0000E-12,,12.6831,12.6837,0.1242,285.340,90.330,89.281,,,,,,,,,,,,
CalCOFI,2101RL,057,,2101_057d,30-Jan-2021 07:20:51,29-Jan-2021 23:20:51,33.57760,-120.75304,083.3 060.0,083.3,060.0,44.000,44.319,,12.6759,,12.6756,,12.6758,33.2715,,33.2773,33.2701,,33.2721,33.2747,5.4187,,5.6711,5.6419,5.3355,,5.6648,5.6376,5.6398,236.071,247.3793,246.1526,232.445,262.9671,245.9631,246.0579,0.0795,,0.4032,0.2801, ,, , ,25.1187,,25.1177,,0.7845,82.1902,,,,3.6947E+00,,1.0000E-12,,12.6701,12.6697,0.1271,284.629,89.833,88.451,,,,,,,,,,,,
CalCOFI,2101RL,057,,2101_057d,30-Jan-2021 07:20:52,29-Jan-2021 23:20:52,33.57760,-120.75304,083.3 060.0,083.3,060.0,45.000,45.327,,12.6138,,12.6131,,12.6135,33.2870,,33.2928,33.2853,,33.2873,33.2901,5.4180,,5.6704,5.6412,5.3139,,5.6419,5.6144,5.6278,236.035,247.3416,246.1147,231.499,262.9270,244.9471,245.5309,0.0692,,0.3188,0.2236, ,, , ,25.1428,,25.1416,,0.7693,82.5035,,,,3.6947E+00,,1.0000E-12,,12.6079,12.6071,0.1299,282.360,89.714,87.988,,,,,,,,,,,,
CalCOFI,2101RL,057,,2101_057d,30-Jan-2021 07:20:54,29-Jan-2021 23:20:54,33.57760,-120.75304,083.3 060.0,083.3,060.0,46.000,46.334,,12.5676,,12.5670,,12.5673,33.2912,,33.2970,33.2893,,33.2913,33.2942,5.3744,,5.6247,5.5953,5.3038,,5.6312,5.6036,5.5995,234.133,245.3506,244.1097,231.056,260.8120,244.4713,244.2905,0.0621,,0.2607,0.1846, ,, , ,25.1550,,25.1536,,0.7668,82.5563,,,,3.6947E+00,,1.0000E-12,,12.5615,12.5609,0.1328,281.218,88.909,87.738,,,,,,,,,,,,
CalCOFI,2101RL,057,,2101_057d,30-Jan-2021 07:20:56,29-Jan-2021 23:20:56,33.57760,-120.75302,083.3 060.0,083.3,060.0,47.000,47.341,,12.5207,,12.5186,,12.5197,33.2916,,33.2974,33.2900,,33.2920,33.2947,5.3101,,5.5575,5.5276,5.2401,,5.5635,5.5353,5.5315,231.326,242.4123,241.1507,228.277,257.6905,241.4866,241.3187,0.0615,,0.2557,0.1813, ,, , ,25.1644,,25.1636,,0.7656,82.5814,,,,3.6947E+00,,1.0000E-12,,12.5144,12.5124,0.1356,280.350,87.758,86.597,,,,,,,,,,,,
CalCOFI,2101RL,057,,2101_057d,30-Jan-2021 07:20:58,29-Jan-2021 23:20:58,33.57760,-120.75302,083.3 060.0,083.3,060.0,48.000,48.349,,12.4566,,12.4581,,12.4574,33.2963,,33.3021,33.2943,,33.2963,33.2992,5.3134,,5.5609,5.5311,5.2216,,5.5439,5.5154,5.5233,231.468,242.5609,241.3004,227.468,257.8484,240.6177,240.9591,0.0619,,0.2590,0.1835, ,, , ,25.1805,,25.1786,,0.7664,82.5648,,,,3.6947E+00,,1.0000E-12,,12.4503,12.4518,0.1384,278.842,87.699,86.185,,,,,,,,,,,,
CalCOFI,2101RL,057,,2101_057d,30-Jan-2021 07:21:01,29-Jan-2021 23:21:01,33.57760,-120.75302,083.3 060.0,083.3,060.0,49.000,49.356,,12.4402,,12.4406,,12.4404,33.3019,,33.3077,33.3004,,33.3024,33.3051,5.2169,,5.4599,5.4295,5.1402,,5.4574,5.4281,5.4288,227.265,238.1612,236.8698,223.921,253.1746,236.8082,236.8390,0.0594,,0.2385,0.1698, ,, , ,25.1880,,25.1868,,0.7659,82.5741,,,,3.6947E+00,,1.0000E-12,,12.4338,12.4342,0.1412,278.150,86.081,84.814,,,,,,,,,,,,
CalCOFI,2101RL,057,,2101_057d,30-Jan-2021 07:21:03,29-Jan-2021 23:21:03,33.57760,-120.75300,083.3 060.0,083.3,060.0,50.000,50.364,,12.4030,,12.4012,,12.4021,33.3167,,33.3225,33.3159,,33.3179,33.3202,5.1268,,5.3656,5.3346,5.0631,,5.3755,5.3454,5.3400,223.331,234.0431,232.7228,220.559,248.8000,233.1974,232.9601,0.0606,,0.2484,0.1764, ,, , ,25.2066,,25.2063,,0.7675,82.5403,,,,3.6947E+00,,1.0000E-12,,12.3964,12.3946,0.1440,276.403,84.535,83.482,,,,,,,,,,,,
CalCOFI,2101RL,057,,2101_057d,30-Jan-2021 07:21:04,29-Jan-2021 23:21:04,33.57760,-120.75300,083.3 060.0,083.3,060.0,51.000,51.371,,12.3726,,12.3685,,12.3706,33.3314,,33.3372,33.3310,,33.3330,33.3351,5.0936,,5.3309,5.2996,5.0443,,5.3556,5.3252,5.3124,221.882,232.5263,231.1954,219.733,247.1887,232.3103,231.7529,0.0615,,0.2557,0.1813, ,, , ,25.2238,,25.2244,,0.7662,82.5686,,,,3.6947E+00,,1.0000E-12,,12.3659,12.3618,0.1468,274.787,83.942,83.122,51,,33.3288,5.409,235.97,0.188,0.174,,,,,
CalCOFI,2101RL,057,,2101_057d,30-Jan-2021 07:21:05,29-Jan-2021 23:21:05,33.57760,-120.75300,083.3 060.0,083.3,060.0,52.000,52.378,,12.3192,,12.3206,,12.3199,33.3453,,33.3511,33.3430,,33.3450,33.3481,5.0895,,5.3266,5.2953,5.0211,,5.3309,5.3003,5.2978,221.702,232.3379,231.0056,218.720,246.9885,231.2223,231.1140,0.0594,,0.2385,0.1698, ,, , ,25.2449,,25.2428,,0.7686,82.5171,,,,3.6947E+00,,1.0000E-12,,12.3124,12.3138,0.1495,272.808,83.790,82.664,,,,,,,,,,,,